Location: Kitt Peak
(31.9633°N, 111.6000°W)
Time: 11:01:42
(UTC-07:00)

Amateur Radio Satellites - All Passes

Search period start: 20 December 2014 10:31
Search period end: 21 December 2014 10:31
Location: Kitt Peak, 31.9633°N, 111.6000°W

Satellite Date Start Highest point End Downlink Frequencies (MHz)
Time Altitude Azimuth
QB50P1 20 Dec 10:32:16 10:36:25 63° 76° (ENE) 10:40:35 145.935-145.965
HO-68 20 Dec 10:33:14 10:39:20 32° 294° (WNW) 10:45:26 435.675
BRITE-PL 20 Dec 10:43:06 10:45:07 13° 292° (WNW) 10:47:11 437.365/2234.400
RS-15 20 Dec 10:45:48 10:55:18 35° 106° (ESE) 11:04:40 29.354- 29.394
COMPASS 1 20 Dec 10:49:51 10:51:30 12° 292° (WNW) 10:53:08 437.405
UWE-3 20 Dec 10:50:57 10:55:28 55° 285° (WNW) 11:00:02 435.000/436.395/437.385
FUNcube-1 20 Dec 10:51:01 10:55:32 67° 284° (WNW) 11:00:06 145.935
YUBILEINY 20 Dec 10:52:26 11:00:36 43° 78° (ENE) 11:08:43 435.215
O/OREOS (USA 219) 20 Dec 10:53:44 10:58:06 47° 68° (ENE) 11:02:28 437.305
TIGRISAT 20 Dec 10:56:41 11:00:43 40° 261° (W) 11:04:51 435.000
POPSAT HIP 1 20 Dec 11:00:59 11:05:05 54° 260° (W) 11:09:13 437.405
DELFI C3 20 Dec 11:07:00 11:10:00 20° 289° (WNW) 11:13:00 145.870
50 SAT 20 Dec 11:07:37 11:11:47 87° 102° (ESE) 11:15:57 437.505
AISAT 20 Dec 11:07:51 11:12:17 82° 283° (WNW) 11:16:44 437.250
DX 1 20 Dec 11:08:28 11:11:58 24° 289° (WNW) 11:15:27 434.975-435.025
CUSAT 1 20 Dec 11:09:22 11:10:01 10° 295° (WNW) 11:10:43 437.405
JUGNU 20 Dec 11:11:54 11:15:17 16° 165° (SSE) 11:18:40 437.505
CUBEBUG 1 20 Dec 11:15:13 11:19:16 39° 99° (E) 11:23:19 437.445
UNISAT 6 20 Dec 11:26:59 11:29:55 18° 265° (W) 11:32:53 437.425
HUMSAT D 20 Dec 11:27:33 11:31:38 41° 286° (WNW) 11:35:43 437.325/437.525
DUCHIFAT 1 20 Dec 11:29:57 11:33:21 24° 263° (W) 11:36:47 145.980
BUGSAT 1 20 Dec 11:30:11 11:33:45 29° 262° (W) 11:37:19 437.445
UKube-1 20 Dec 11:42:02 11:43:07 11° 294° (WNW) 11:44:12 .
QB50P2 20 Dec 11:44:09 11:46:48 16° 265° (W) 11:49:28 145.880/145.840
CUBEBUG 2 20 Dec 11:51:25 11:52:44 11° 293° (WNW) 11:54:03 437.445
POLYITAN 1 20 Dec 11:53:47 11:55:37 13° 266° (W) 11:57:28 437.675
NANOSAT C BR1 20 Dec 11:56:32 11:58:06 12° 266° (W) 11:59:40 145.865
VELOX 1 20 Dec 12:02:21 12:05:32 20° 291° (WNW) 12:08:42 145.980
ESTCUBE 1 20 Dec 12:02:55 12:07:15 50° 286° (WNW) 12:11:34 437.505/2401.250
ZACube-1 20 Dec 12:03:25 12:04:30 11° 293° (WNW) 12:05:36 437.345
SRMSAT 20 Dec 12:15:40 12:18:12 13° 163° (SSE) 12:20:45 437.500
TISAT 1 20 Dec 12:21:42 12:25:51 54° 100° (E) 12:30:00 437.305
SPROUT 20 Dec 12:24:09 12:28:22 54° 100° (E) 12:32:34 437.525
O/OREOS (USA 219) 20 Dec 12:35:25 12:37:00 12° 261° (W) 12:38:36 437.305
BEESAT 2 20 Dec 12:41:05 12:44:29 26° 111° (ESE) 12:47:56 435.950
YUBILEINY 20 Dec 12:49:37 12:57:03 33° 274° (W) 13:04:31 435.215
CUBEBUG 1 20 Dec 12:52:59 12:55:16 14° 292° (WNW) 12:57:32 437.445
RS-15 20 Dec 12:56:25 13:07:03 54° 304° (WNW) 13:17:44 29.354- 29.394
JUGNU 20 Dec 12:59:02 13:03:43 24° 174° (S) 13:08:24 437.505
SWISSCUBE 20 Dec 13:02:03 13:05:41 22° 96° (E) 13:09:17 437.505
ITUPSAT 1 20 Dec 13:02:36 13:06:02 20° 95° (E) 13:09:25 437.325
PCSat 20 Dec 13:08:31 13:13:18 33° 108° (ESE) 13:18:07 145.827
Oscar 19 20 Dec 13:08:44 13:13:50 72° 75° (ENE) 13:18:59 437.125/150
Gurwin Techsat 1B 20 Dec 13:19:43 13:23:19 19° 67° (ENE) 13:26:54 435.225
ISS 20 Dec 13:22:38 13:25:56 81° 316° (NW) 13:29:14 145.825
ITAMSAT 1 20 Dec 13:24:33 13:29:13 35° 71° (ENE) 13:33:53 435.822/435.867
BEESAT 20 Dec 13:26:27 13:30:52 37° 99° (E) 13:35:15 436.000
BEESAT 3 20 Dec 13:38:46 13:42:44 51° 300° (WNW) 13:46:47 437.485
AIST 2 20 Dec 13:44:19 13:48:28 65° 115° (ESE) 13:52:42 435.215
AO-7 20 Dec 13:54:44 13:58:11 13° 54° (NE) 14:01:38 29.400- 29.500
SRMSAT 20 Dec 14:02:16 14:06:46 22° 172° (S) 14:11:15 437.500
SPROUT 20 Dec 14:03:30 14:03:56 10° 293° (WNW) 14:04:21 437.525
BEESAT 2 20 Dec 14:19:29 14:22:40 21° 306° (NW) 14:25:53 435.950
AUBIESAT-1 20 Dec 14:25:56 14:30:05 57° 104° (ESE) 14:33:50 437.475
STARS 20 Dec 14:30:09 14:33:37 22° 96° (E) 14:37:04 437.465
KKS-1 20 Dec 14:32:56 14:37:05 37° 99° (E) 14:41:14 437.445
SWISSCUBE 20 Dec 14:39:22 14:43:29 30° 289° (WNW) 14:47:35 437.505
ITUPSAT 1 20 Dec 14:39:40 14:43:55 33° 288° (WNW) 14:48:08 437.325
JUGNU 20 Dec 14:47:29 14:52:12 24° 185° (S) 14:56:54 437.505
M-CUBED/EXP-1 PRIME 20 Dec 14:51:28 14:55:40 57° 290° (WNW) 14:59:28 437.505
PCSat 20 Dec 14:52:09 14:56:40 27° 303° (WNW) 15:01:13 145.827
HORYU 2 20 Dec 14:56:50 15:01:16 70° 76° (ENE) 15:05:44 437.375
Gurwin Techsat 1B 20 Dec 14:57:51 15:02:53 44° 261° (W) 15:07:56 435.225
ITAMSAT 1 20 Dec 15:04:49 15:08:42 21° 264° (W) 15:12:37 435.822/435.867
BEESAT 20 Dec 15:05:14 15:08:22 18° 292° (WNW) 15:11:30 436.000
RS-15 20 Dec 15:17:31 15:22:40 14° 331° (NNW) 15:27:51 29.354- 29.394
JAS-2 20 Dec 15:22:54 15:27:51 19° 65° (ENE) 15:32:34 435.910
AIST 2 20 Dec 15:26:27 15:27:30 11° 311° (NW) 15:28:34 435.215
AO-7 20 Dec 15:41:17 15:49:33 76° 71° (ENE) 15:57:53 29.400- 29.500
SRMSAT 20 Dec 15:50:38 15:55:24 25° 182° (S) 16:00:08 437.500
AIST 1 20 Dec 16:03:41 16:07:19 26° 90° (E) 16:10:57
STARS 20 Dec 16:06:20 16:09:59 25° 289° (WNW) 16:13:37 437.465
KKS-1 20 Dec 16:10:43 16:13:22 16° 292° (WNW) 16:16:01 437.445
JUGNU 20 Dec 16:37:06 16:40:38 16° 194° (SSW) 16:44:10 437.505
GONETS M04 20 Dec 16:47:14 16:55:43 52° 80° (E) 17:04:05
CUTE-I 20 Dec 16:53:55 16:57:14 17° 66° (ENE) 17:00:32 437.470
JAS-2 20 Dec 17:04:28 17:12:14 74° 258° (WSW) 17:19:28 435.910
MOZHAYETS 4 20 Dec 17:18:02 17:22:40 78° 102° (ESE) 17:27:15
AO-7 20 Dec 17:37:37 17:42:53 18° 265° (W) 17:48:13 29.400- 29.500
SRMSAT 20 Dec 17:40:01 17:43:59 19° 192° (SSW) 17:47:57 437.500
AIST 1 20 Dec 17:41:45 17:44:54 19° 283° (WNW) 17:48:03
Cubesat XI-IV 20 Dec 17:58:12 18:03:31 78° 76° (ENE) 18:08:51 437.490
PRISM 20 Dec 18:03:01 18:06:36 28° 98° (E) 18:10:09 437.425
CUTE-I 20 Dec 18:31:42 18:36:50 49° 260° (W) 18:41:59 437.470
CUBESAT XI-V 20 Dec 18:41:19 18:45:37 38° 98° (E) 18:49:53 437.345
GONETS M04 20 Dec 18:45:02 18:51:56 27° 276° (W) 18:58:49
STRAND 1 20 Dec 18:52:14 18:57:03 42° 99° (E) 19:01:51 437.568
MaSat-1 20 Dec 19:06:58 19:09:23 50° 249° (WSW) 19:11:58 437.345
HO-68 20 Dec 19:10:32 19:15:12 19° 61° (ENE) 19:19:51 435.675
DANDE 20 Dec 19:17:21 19:20:43 13° 68° (ENE) 19:24:10 436.750
PRISM 20 Dec 19:39:10 19:41:53 17° 291° (WNW) 19:44:35 437.425
CANX-2 20 Dec 19:39:11 19:41:37 15° 69° (ENE) 19:44:04 2200.000
RS-15 20 Dec 19:51:37 20:01:01 29° 46° (NE) 20:10:41 29.354- 29.394
ISS 20 Dec 19:55:54 19:57:33 13° 32° (NNE) 19:59:11 145.825
COMPASS 1 20 Dec 20:00:18 20:03:03 17° 69° (ENE) 20:05:48 437.405
CUSAT 1 20 Dec 20:05:13 20:12:31 37° 76° (ENE) 20:20:10 437.405
SEEDS 20 Dec 20:05:18 20:08:41 24° 71° (ENE) 20:12:06 437.485
CUTE 1.7 + AOD 2 20 Dec 20:08:30 20:12:14 31° 73° (ENE) 20:16:00 437.475
BRITE-PL 20 Dec 20:09:41 20:13:30 34° 74° (ENE) 20:17:15 437.365/2234.400
CUBESAT XI-V 20 Dec 20:19:56 20:22:41 16° 292° (WNW) 20:25:26 437.345
DX 1 20 Dec 20:25:50 20:27:06 11° 66° (ENE) 20:28:22 434.975-435.025
SO-50 20 Dec 20:28:27 20:32:35 38° 113° (ESE) 20:36:51 436.795
STRAND 1 20 Dec 20:32:31 20:35:52 18° 293° (WNW) 20:39:12 437.568
GOMX 1 20 Dec 20:35:20 20:39:21 48° 75° (ENE) 20:43:20 467.674
Oscar 11 20 Dec 20:45:32 20:49:05 25° 71° (ENE) 20:52:39 145.826/435.025
UKube-1 20 Dec 20:54:17 20:57:46 24° 71° (ENE) 21:01:15 .
HO-68 20 Dec 20:55:01 21:02:09 70° 256° (WSW) 21:09:20 435.675
DANDE 20 Dec 20:56:57 21:05:00 74° 82° (E) 21:13:42 436.750
AAUSAT CUBESAT 2 20 Dec 20:58:44 21:02:55 82° 77° (ENE) 21:07:09 437.432
DOVE 4 20 Dec 20:59:50 21:03:57 70° 76° (ENE) 21:08:05 437.250
CUBEBUG 2 20 Dec 21:06:38 21:10:05 26° 71° (ENE) 21:13:36 437.445
CANX-2 20 Dec 21:13:19 21:17:12 35° 262° (W) 21:21:08 2200.000
ZACube-1 20 Dec 21:16:34 21:19:55 24° 71° (ENE) 21:23:19 437.345
VELOX 1 20 Dec 21:19:58 21:22:30 15° 68° (ENE) 21:25:02 145.980
CINEMA 3 20 Dec 21:23:49 21:27:57 77° 77° (ENE) 21:32:09 145.822/145.860
ISS 20 Dec 21:31:09 21:34:22 56° 227° (SW) 21:37:33 145.825
COMPASS 1 20 Dec 21:34:48 21:38:29 30° 263° (W) 21:42:13 437.405
SEEDS 20 Dec 21:41:09 21:44:23 21° 264° (W) 21:47:39 437.485
FUNcube-1 20 Dec 21:42:29 21:46:30 50° 75° (ENE) 21:50:36 145.935
UWE-3 20 Dec 21:43:39 21:47:45 65° 76° (ENE) 21:51:57 435.000/436.395/437.385
CUTE 1.7 + AOD 2 20 Dec 21:45:28 21:48:10 17° 266° (W) 21:50:54 437.475
CUSAT 1 20 Dec 21:48:01 21:55:34 45° 269° (W) 22:03:27 437.405
UNISAT 6 20 Dec 21:49:22 21:49:50 10° 92° (E) 21:50:18 437.425
DELFI C3 20 Dec 21:49:39 21:53:41 59° 260° (W) 21:57:46 145.870
BRITE-PL 20 Dec 21:50:06 21:52:07 13° 266° (W) 21:54:06 437.365/2234.400
50 SAT 20 Dec 21:51:45 21:55:08 27° 72° (ENE) 21:58:34 437.505
DX 1 20 Dec 21:58:38 22:02:51 51° 259° (W) 22:07:04 434.975-435.025
AISAT 20 Dec 22:01:19 22:05:34 48° 74° (ENE) 22:09:49 437.250
RS-15 20 Dec 22:03:03 22:14:26 77° 246° (WSW) 22:26:19 29.354- 29.394
BEESAT 3 20 Dec 22:03:36 22:06:51 22° 55° (NE) 22:10:03 437.485
PCSat 20 Dec 22:03:48 22:05:07 11° 49° (NE) 22:06:25 145.827
CUBEBUG 1 20 Dec 22:07:52 22:10:54 19° 70° (ENE) 22:13:57 437.445
SO-50 20 Dec 22:10:03 22:13:15 19° 309° (NW) 22:16:31 436.795
AIST 2 20 Dec 22:13:00 22:14:34 12° 50° (NE) 22:16:08 435.215
HUMSAT D 20 Dec 22:14:47 22:18:52 73° 77° (ENE) 22:23:01 437.325/437.525
ANTELSAT 20 Dec 22:18:13 22:22:04 24° 96° (E) 22:25:53 437.575/2403.000
Oscar 11 20 Dec 22:21:54 22:25:09 21° 264° (W) 22:28:27 145.826/435.025
QB50P1 20 Dec 22:23:58 22:26:30 15° 95° (E) 22:29:02 145.935-145.965
UKube-1 20 Dec 22:30:26 22:33:48 22° 263° (W) 22:37:11 .
DANDE 20 Dec 22:42:10 22:47:52 21° 274° (W) 22:53:49 436.750
BEESAT 2 20 Dec 22:43:02 22:47:08 53° 60° (ENE) 22:51:09 435.950
CUBEBUG 2 20 Dec 22:43:50 22:46:45 18° 265° (W) 22:49:42 437.445
POPSAT HIP 1 20 Dec 22:51:31 22:55:24 34° 98° (E) 22:59:17 437.405
TIGRISAT 20 Dec 22:52:54 22:57:34 61° 101° (E) 23:02:13 435.000
ZACube-1 20 Dec 22:53:07 22:56:13 20° 265° (W) 22:59:21 437.345
VELOX 1 20 Dec 22:54:37 22:58:43 38° 261° (W) 23:02:50 145.980
ESTCUBE 1 20 Dec 22:57:30 23:02:03 81° 77° (ENE) 23:06:35 437.505/2401.250
TISAT 1 20 Dec 23:10:26 23:13:40 22° 71° (ENE) 23:16:54 437.305
SPROUT 20 Dec 23:14:29 23:17:49 23° 71° (ENE) 23:21:10 437.525
BUGSAT 1 20 Dec 23:16:58 23:20:57 55° 101° (E) 23:24:58 437.445
DUCHIFAT 1 20 Dec 23:19:05 23:23:20 78° 102° (ESE) 23:27:36 145.980
UNISAT 6 20 Dec 23:22:14 23:26:53 60° 285° (WNW) 23:31:32 437.425
50 SAT 20 Dec 23:27:48 23:30:20 16° 265° (W) 23:32:54 437.505
QB50P2 20 Dec 23:32:52 23:37:07 69° 284° (WNW) 23:41:22 145.880/145.840
AISAT 20 Dec 23:41:05 23:42:23 11° 267° (W) 23:43:41 437.250
BEESAT 3 20 Dec 23:41:30 23:44:57 26° 249° (WSW) 23:48:21 437.485
POLYITAN 1 20 Dec 23:41:52 23:46:03 52° 285° (WNW) 23:50:14 437.675
CUBEBUG 1 20 Dec 23:43:13 23:47:02 29° 262° (W) 23:50:51 437.445
PCSat 20 Dec 23:43:48 23:49:15 88° 66° (ENE) 23:54:38 145.827
NANOSAT C BR1 20 Dec 23:43:53 23:48:00 50° 285° (WNW) 23:52:07 145.865
YUBILEINY 20 Dec 23:46:42 23:55:13 59° 91° (E) 00:03:41 435.215
AIST 2 20 Dec 23:49:21 23:53:33 58° 245° (WSW) 23:57:40 435.215
ANTELSAT 20 Dec 23:54:48 23:58:43 27° 289° (WNW) 00:02:39 437.575/2403.000
QB50P1 20 Dec 23:58:36 00:02:25 33° 287° (WNW) 00:06:15 145.935-145.965
SWISSCUBE 21 Dec 00:05:10 00:07:55 15° 67° (ENE) 00:10:40 437.505
ITUPSAT 1 21 Dec 00:06:06 00:08:33 14° 66° (ENE) 00:11:00 437.325
RS-15 21 Dec 00:20:33 00:25:05 13° 261° (W) 00:29:42 29.354- 29.394
POPSAT HIP 1 21 Dec 00:28:26 00:30:59 16° 291° (WNW) 00:33:32 437.405
BEESAT 21 Dec 00:28:46 00:32:41 26° 70° (ENE) 00:36:36 436.000
TIGRISAT 21 Dec 00:32:21 00:33:44 11° 294° (WNW) 00:35:08 435.000
TISAT 1 21 Dec 00:46:01 00:49:21 23° 263° (W) 00:52:41 437.305
SPROUT 21 Dec 00:50:24 00:53:46 23° 264° (W) 00:57:09 437.525
O/OREOS (USA 219) 21 Dec 01:01:00 01:05:21 56° 291° (WNW) 01:09:45 437.305
VERMONT LUNAR 21 Dec 01:04:06 01:05:42 13° 140° (SE) 01:07:18 437.305
AUBIESAT-1 21 Dec 01:09:29 01:13:55 40° 68° (ENE) 01:18:29 437.475
PHONESAT 2.4 21 Dec 01:20:31 01:21:16 11° 139° (SE) 01:22:02 2401.200-2431.200
STARS 21 Dec 01:25:03 01:26:21 11° 66° (ENE) 01:27:38 437.465
Oscar 19 21 Dec 01:25:32 01:30:22 38° 99° (E) 01:35:10 437.125/150
KKS-1 21 Dec 01:27:29 01:30:39 20° 69° (ENE) 01:33:49 437.445
M-CUBED/EXP-1 PRIME 21 Dec 01:34:59 01:39:45 85° 73° (ENE) 01:44:42 437.505
SWISSCUBE 21 Dec 01:40:47 01:45:21 45° 260° (W) 01:49:57 437.505
ITUPSAT 1 21 Dec 01:41:19 01:45:58 49° 260° (W) 01:50:38 437.325
ITAMSAT 1 21 Dec 01:43:06 01:46:40 19° 95° (E) 01:50:14 435.822/435.867
YUBILEINY 21 Dec 01:45:37 01:52:23 25° 287° (WNW) 01:59:10 435.215
BEESAT 21 Dec 02:06:26 02:10:23 26° 263° (W) 02:14:22 436.000
VERMONT LUNAR 21 Dec 02:40:07 02:43:39 88° 151° (SSE) 02:47:11 437.305
AUBIESAT-1 21 Dec 02:45:38 02:48:55 18° 262° (W) 02:52:16 437.475
HORYU 2 21 Dec 02:54:14 02:57:35 20° 96° (E) 03:00:54 437.375
PHONESAT 2.4 21 Dec 02:55:54 02:59:31 74° 150° (SSE) 03:03:08 2401.200-2431.200
STARS 21 Dec 02:58:04 03:02:19 51° 260° (W) 03:06:35 437.465
KKS-1 21 Dec 03:03:13 03:07:03 29° 262° (W) 03:10:54 437.445
Oscar 19 21 Dec 03:05:37 03:09:23 21° 292° (WNW) 03:13:08 437.125/150
Gurwin Techsat 1B 21 Dec 03:18:46 03:24:03 73° 285° (WNW) 03:29:19 435.225
ITAMSAT 1 21 Dec 03:21:26 03:26:14 40° 288° (WNW) 03:31:01 435.822/435.867
AO-7 21 Dec 03:49:04 03:56:28 34° 99° (E) 04:03:48 29.400- 29.500
AIST 1 21 Dec 03:52:45 03:57:00 64° 83° (E) 04:01:12
MOZHAYETS 4 21 Dec 04:15:16 04:19:36 40° 74° (ENE) 04:23:57
VERMONT LUNAR 21 Dec 04:19:14 04:22:14 25° 347° (NNW) 04:25:14 437.305
JAS-2 21 Dec 04:22:43 04:25:43 15° 92° (E) 04:28:39 435.910
HORYU 2 21 Dec 04:30:19 04:34:11 28° 289° (WNW) 04:38:02 437.375
PHONESAT 2.4 21 Dec 04:35:14 04:38:26 28° 346° (NNW) 04:41:37 2401.200-2431.200
PRISM 21 Dec 04:51:01 04:52:46 12° 67° (ENE) 04:54:31 437.425
SO-50 21 Dec 05:06:10 05:08:14 12° 48° (NE) 05:10:18 436.795
CUBESAT XI-V 21 Dec 05:40:41 05:44:18 23° 70° (ENE) 05:47:55 437.345
GONETS M04 21 Dec 05:41:23 05:50:08 71° 93° (E) 05:58:55
AO-7 21 Dec 05:41:26 05:49:14 45° 294° (WNW) 05:56:59 29.400- 29.500
MOZHAYETS 4 21 Dec 05:54:19 05:56:56 15° 266° (W) 05:59:33
VERMONT LUNAR 21 Dec 05:58:33 06:01:15 20° 5° (N) 06:03:58 437.305
STRAND 1 21 Dec 06:03:28 06:08:09 37° 72° (ENE) 06:12:49 437.568
JAS-2 21 Dec 06:05:57 06:11:10 46° 288° (WNW) 06:16:05 435.910
PHONESAT 2.4 21 Dec 06:15:00 06:17:48 21° 3° (N) 06:20:37 2401.200-2431.200
Cubesat XI-IV 21 Dec 06:20:41 06:25:47 47° 100° (E) 06:30:53 437.490
PRISM 21 Dec 06:23:50 06:27:52 43° 260° (W) 06:31:54 437.425
SO-50 21 Dec 06:44:23 06:49:18 75° 244° (WSW) 06:54:10 436.795
CUTE-I 21 Dec 06:53:37 06:58:57 82° 284° (WNW) 07:04:15 437.470
CUBESAT XI-V 21 Dec 07:17:34 07:21:33 27° 263° (W) 07:25:32 437.345
VERMONT LUNAR 21 Dec 07:36:44 07:40:07 43° 21° (NNE) 07:43:30 437.305
GONETS M04 21 Dec 07:41:31 07:47:36 20° 289° (WNW) 07:53:44
STRAND 1 21 Dec 07:43:44 07:47:22 20° 265° (W) 07:51:02 437.568
PHONESAT 2.4 21 Dec 07:53:38 07:57:04 39° 20° (NNE) 08:00:30 2401.200-2431.200
Cubesat XI-IV 21 Dec 08:02:01 08:05:27 18° 294° (WNW) 08:08:54 437.490
BRITE-PL 21 Dec 08:18:42 08:22:14 20° 96° (E) 08:25:55 437.365/2234.400
MaSat-1 21 Dec 08:20:14 08:22:29 38° 110° (ESE) 08:24:39 437.345
HO-68 21 Dec 08:28:48 08:34:53 30° 98° (E) 08:40:55 435.675
GOMX 1 21 Dec 08:41:27 08:45:28 24° 97° (E) 08:49:38 467.674
AAUSAT CUBESAT 2 21 Dec 08:48:15 08:51:16 19° 95° (E) 08:54:16 437.432
DOVE 4 21 Dec 09:03:19 09:07:39 31° 98° (E) 09:12:09 437.250
CANX-2 21 Dec 09:03:25 09:07:40 56° 100° (E) 09:11:52 2200.000
CUSAT 1 21 Dec 09:13:06 09:16:02 27° 88° (E) 09:19:42 437.405
ANTELSAT 21 Dec 09:15:04 09:16:37 12° 66° (ENE) 09:18:11 437.575/2403.000
VERMONT LUNAR 21 Dec 09:15:11 09:18:22 31° 215° (SW) 09:21:32 437.305
COMPASS 1 21 Dec 09:23:07 09:27:20 62° 101° (E) 09:31:31 437.405
CINEMA 3 21 Dec 09:23:30 09:27:42 29° 97° (E) 09:31:59 145.822/145.860
SEEDS 21 Dec 09:29:39 09:33:57 88° 285° (WNW) 09:38:13 437.485
PHONESAT 2.4 21 Dec 09:32:22 09:35:46 38° 214° (SW) 09:39:09 2401.200-2431.200
CUTE 1.7 + AOD 2 21 Dec 09:34:07 09:38:24 66° 284° (WNW) 09:42:38 437.475
DELFI C3 21 Dec 09:35:38 09:39:09 27° 97° (E) 09:42:37 145.870
FUNcube-1 21 Dec 09:37:07 09:39:53 16° 94° (E) 09:42:40 145.935
UWE-3 21 Dec 09:39:09 09:42:39 21° 96° (E) 09:46:11 435.000/436.395/437.385
POPSAT HIP 1 21 Dec 09:41:33 09:43:50 14° 68° (ENE) 09:46:07 437.405
TIGRISAT 21 Dec 09:47:41 09:51:23 28° 71° (ENE) 09:55:09 435.000
DX 1 21 Dec 09:52:02 09:56:05 38° 99° (E) 10:00:08 434.975-435.025
BRITE-PL 21 Dec 09:56:17 10:00:42 37° 286° (WNW) 10:05:26 437.365/2234.400
AISAT 21 Dec 09:58:58 10:01:17 14° 94° (E) 10:03:36 437.250
BUGSAT 1 21 Dec 10:03:32 10:06:35 21° 71° (ENE) 10:09:37 437.445
YUBILEINY 21 Dec 10:04:16 10:10:34 22° 72° (ENE) 10:16:51 435.215
HUMSAT D 21 Dec 10:05:15 10:08:15 18° 95° (E) 10:11:15 437.325/437.525
DUCHIFAT 1 21 Dec 10:07:36 10:11:15 30° 72° (ENE) 10:14:55 145.980
DANDE 21 Dec 10:08:12 10:11:22 59° 281° (W) 10:15:32 436.750
RS-15 21 Dec 10:11:31 10:19:40 25° 103° (ESE) 10:27:42 29.354- 29.394
Oscar 11 21 Dec 10:13:00 10:17:22 80° 283° (WNW) 10:21:42 145.826/435.025
HO-68 21 Dec 10:15:59 10:22:35 42° 292° (WNW) 10:29:11 435.675
UNISAT 6 21 Dec 10:16:34 10:20:51 66° 76° (ENE) 10:25:16 437.425
GOMX 1 21 Dec 10:19:15 10:23:28 30° 287° (WNW) 10:27:54 467.674
QB50P2 21 Dec 10:21:19 10:25:20 46° 74° (ENE) 10:29:23 145.880/145.840
UKube-1 21 Dec 10:22:02 10:26:22 90° 103° (ESE) 10:30:42 .
AAUSAT CUBESAT 2 21 Dec 10:23:19 10:26:52 26° 288° (WNW) 10:30:23 437.432
